[[{"header":{"parameterUnit":"m.s-1","parameterCategory":1,"la1":30.2991,"la2":30.254,"lo1":-89.0895,"lo2":-89.0444,"dy":0.0017,"dx":0.0017,"nx":28,"ny":28,"refTime":"2024-05-17T09:00:00:Z","depth":0,"parameterNumber":2,"parameterNumberName":"U-component_of_WINDS"},"data":[0,0,0,0,0,0,0,0,0,0,0,0,0,0,0,0,0,0,0,0,0,0,0,0,0,0,0,0,0,0,0,0,0,0,0,0,0,0,0,0,0,0,0,0,0,0,0,0,0,0,0,0,0,0,0,0,0,0,1.5855,1.5855,0,1.5882,1.5883,1.5883,1.582,1.5818,1.5816,1.5815,1.5847,1.585,1.5853,0,0,0,0,0,0,0,0,0,0,0,0,0,1.5753,1.5756,1.5855,1.5855,1.5856,1.5882,1.5883,1.5883,1.5821,1.5818,1.5816,1.5814,1.5846,1.585,1.5853,0,0,0,0,0,0,0,0,0,0,0,0,0,1.5791,1.5756,1.5855,1.5828,1.5826,1.5882,1.5883,1.5883,1.5821,1.5818,1.5815,1.5812,1.5845,1.5849,1.5853,1.5939,0,0,1.5866,1.5868,0,0,0,0,0,0,0,0,1.5789,1.5795,1.5831,1.583,1.5827,1.5845,1.5859,1.5902,1.5822,1.5823,1.5814,1.5811,1.5849,1.5853,1.5865,1.5941,1.5942,1.5866,1.5869,1.5871,1.5872,0,0,0,0,0,0,0,1.5786,1.5793,1.5866,1.5832,1.583,1.5816,1.5818,1.5867,1.5853,1.5823,1.5818,1.5822,1.5848,1.5861,1.5865,1.5942,1.5866,1.587,1.5872,1.5874,1.6089,1.6092,0,0,0,0,0,0,1.5787,1.5791,1.5865,1.5867,1.58,1.582,1.5822,1.5842,1.5852,1.5851,1.5825,1.5819,1.5855,1.586,1.5866,1.5965,1.5871,1.5874,1.5877,1.6086,1.609,1.6093,0,0,0,0,0,0,1.5785,1.5794,1.5864,1.5828,1.5836,1.5825,1.5848,1.5844,1.5858,1.5853,1.5851,1.584,1.5853,1.586,1.5921,1.5966,1.5876,1.588,1.6082,1.6087,1.6091,1.6166,0,0,0,0,0,0,1.5782,1.5793,1.5825,1.5829,1.5838,1.5917,1.5851,1.5847,1.5864,1.5857,1.5868,1.5867,1.5851,1.5915,1.5925,1.597,1.5883,1.6078,1.6084,1.609,1.616,1.6173,1.6185,0,0,0,0,0,1.5779,1.5846,1.5827,1.5836,1.5877,1.592,1.5925,1.5905,1.5868,1.59,1.5897,1.5866,1.596,1.5922,1.5932,1.5979,1.6075,1.6082,1.6089,1.6154,1.6171,1.6184,0,0,0,0,0,0,1.585,1.5846,1.5825,1.5896,1.5908,1.5909,1.5949,1.5923,1.5948,1.594,1.5916,1.5919,1.5984,1.5988,1.5946,1.6062,1.6011,1.6021,1.6057,1.6072,1.6085,1.6082,1.5887,0,0,0,0,0,1.5873,1.5907,1.5903,1.5966,1.5974,1.5961,1.5979,1.5962,1.5975,1.598,1.5982,1.5997,1.6029,1.6051,1.6081,1.6161,1.6162,1.6198,1.6211,1.6221,1.6229,1.627,1.6286,1.6117,1.6117,1.6117,0,0,1.5923,1.5926,1.5949,1.5981,1.5988,1.6025,1.5966,1.6007,1.6034,1.5987,1.6043,1.6045,1.606,1.613,1.6161,1.6136,1.6276,1.623,1.6238,1.6241,1.628,1.6296,1.631,1.6122,1.6121,1.612,0,0,1.6032,1.6038,1.609,1.6099,1.611,1.6101,1.6114,1.6119,1.6118,1.6173,1.6138,1.6171,1.6228,1.6239,1.6253,1.6366,1.6338,1.6377,1.6441,1.6481,1.6495,1.6506,1.6546,1.656,1.6385,1.6385,1.6385,0,1.6093,1.6145,1.6121,1.6164,1.6179,1.6136,1.6189,1.6199,1.6221,1.6233,1.6204,1.6273,1.6281,1.6352,1.6379,1.6392,1.6406,1.6375,1.6495,1.6506,1.6517,1.6554,1.6569,1.639,1.6389,1.6389,1.6388,0,1.6218,1.6255,1.6297,1.6316,1.6336,1.6385,1.6368,1.6392,1.6373,1.6367,1.6425,1.6432,1.6461,1.6477,1.6461,1.6547,1.653,1.6498,1.6446,1.6538,1.6572,1.6586,1.6396,1.6395,1.6393,1.6392,0,0,1.6372,1.6377,1.6393,1.6401,1.6411,1.6439,1.6486,1.6513,1.6533,1.655,1.6589,1.6637,1.6607,1.6623,1.6607,1.6643,1.673,1.6606,1.6606,1.6628,1.6824,1.6846,1.6863,1.6712,1.6714,1.6717,1.6822,0,1.6479,1.6556,1.6536,1.6614,1.6647,1.6607,1.6648,1.6659,1.6655,1.6683,1.668,1.6714,1.6672,1.6681,1.6715,1.6712,1.6769,1.6705,1.6747,1.6749,1.6743,1.6881,1.6906,1.7005,1.6835,1.6838,1.6839,0,1.6613,1.6632,1.6713,1.6716,1.673,1.6766,1.6789,1.6817,1.6829,1.6824,1.6841,1.6818,1.6864,1.6813,1.6876,1.6833,1.685,1.6851,1.6855,1.6857,1.6799,1.6886,1.7036,1.705,1.686,1.6859,1.6857,0,1.6715,1.6762,1.6816,1.6825,1.683,1.6857,1.6861,1.6869,1.6887,1.6908,1.6919,1.6946,1.696,1.6982,1.6967,1.6931,1.7033,1.698,1.703,1.703,1.7052,1.7051,1.7206,1.7065,1.7065,1.7065,1.7065,0,1.6835,1.6886,1.6862,1.6895,1.6951,1.6927,1.6983,1.6983,1.6991,1.7024,1.6992,1.7024,1.7003,1.7034,1.7023,1.7076,1.7084,1.7081,1.7077,1.7083,1.7083,1.7092,1.7085,1.7069,1.7068,1.7067,1.7067,0,1.6958,1.6944,1.7,1.7,1.7002,1.7043,1.7043,1.7075,1.7068,1.711,1.7119,1.7109,1.7143,1.713,1.7168,1.716,1.7228,1.7216,1.7224,1.722,1.7269,1.7265,1.7435,1.7455,1.7303,1.7305,1.7306,0,1.7035,1.7072,1.7076,1.7095,1.7101,1.7132,1.7149,1.7128,1.7147,1.7163,1.7193,1.7224,1.7247,1.7303,1.73,1.7328,1.7316,1.7374,1.732,1.7324,1.7315,1.7312,1.7316,1.7384,1.7386,1.7387,1.7388,0,1.7172,1.7163,1.7188,1.721,1.7231,1.7249,1.7263,1.7281,1.7261,1.7284,1.7318,1.7336,1.7373,1.7404,1.7428,1.7434,1.7408,1.7405,1.7418,1.7424,1.7426,1.7424,1.7251,1.7401,1.74,1.7399,1.7398,1.7398,1.7273,1.7304,1.7311,1.734,1.7348,1.7363,1.7391,1.7388,1.7415,1.7442,1.7428,1.7467,1.7478,1.7508,1.7517,1.7547,1.7525,1.7544,1.7548,1.7553,1.7558,1.7422,1.7552,1.7552,1.7551,1.7551,1.7551,0,1.7406,1.7409,1.7436,1.7456,1.7479,1.7452,1.7467,1.7488,1.7522,1.7533,1.7557,1.7595,1.7625,1.7624,1.7651,1.7676,1.7665,1.7684,1.7681,1.7683,1.7578,1.7563,1.7692,1.7692,1.7692,1.7692,1.7692,1.7692,1.7479,1.7529,1.7521,1.7576,1.7579,1.7615,1.7626,1.7639,1.7648,1.7691,1.7715,1.7714,1.7721,1.7748,1.7775,1.7774,1.7785,1.7808,1.7803,1.7704,1.769,1.7677,1.7663,1.7811,1.7811,1.7905,1.7906,1.7906]},{"header":{"parameterUnit":"m.s-1","parameterCategory":1,"la1":30.2991,"la2":30.254,"lo1":-89.0895,"lo2":-89.0444,"dy":0.0017,"dx":0.0017,"nx":28,"ny":28,"refTime":"2024-05-17T09:00:00:Z","depth":0,"parameterNumber":3,"parameterNumberName":"V-component_of_WINDS"},"data":[0,0,0,0,0,0,0,0,0,0,0,0,0,0,0,0,0,0,0,0,0,0,0,0,0,0,0,0,0,0,0,0,0,0,0,0,0,0,0,0,0,0,0,0,0,0,0,0,0,0,0,0,0,0,0,0,0,0,3.2438,3.244,0,3.2622,3.2624,3.2626,3.2636,3.2634,3.2632,3.263,3.2814,3.2821,3.2827,0,0,0,0,0,0,0,0,0,0,0,0,0,3.209,3.2097,3.2438,3.244,3.2442,3.2622,3.2624,3.2627,3.2637,3.2634,3.2631,3.2629,3.2812,3.282,3.2828,0,0,0,0,0,0,0,0,0,0,0,0,0,3.2254,3.2099,3.2437,3.2469,3.2474,3.2621,3.2624,3.2627,3.2637,3.2634,3.2631,3.2628,3.2809,3.2819,3.2829,3.2956,0,0,3.2861,3.2865,0,0,0,0,0,0,0,0,3.2245,3.2267,3.2462,3.2467,3.2473,3.2603,3.2569,3.2737,3.2638,3.2575,3.263,3.2626,3.2746,3.2761,3.2803,3.2964,3.2972,3.2862,3.2868,3.2872,3.2875,0,0,0,0,0,0,0,3.2234,3.2259,3.251,3.2465,3.2471,3.2473,3.2492,3.2601,3.2676,3.258,3.2581,3.2603,3.2748,3.2793,3.2807,3.2975,3.2861,3.287,3.2877,3.2881,3.3249,3.3252,0,0,0,0,0,0,3.2217,3.225,3.2505,3.2516,3.2349,3.2481,3.2504,3.2564,3.2675,3.2689,3.2606,3.2603,3.2777,3.2795,3.2813,3.2969,3.2872,3.2882,3.2888,3.3245,3.325,3.3254,0,0,0,0,0,0,3.2209,3.224,3.2497,3.2383,3.2416,3.2491,3.2559,3.257,3.2614,3.2694,3.2707,3.2638,3.2775,3.2799,3.2921,3.2975,3.2886,3.2896,3.3241,3.3247,3.3252,3.328,0,0,0,0,0,0,3.2199,3.2237,3.2287,3.2384,3.2422,3.2603,3.2562,3.2575,3.2632,3.263,3.2728,3.274,3.2774,3.2905,3.2931,3.2988,3.2904,3.3237,3.3244,3.325,3.3275,3.3286,3.3296,0,0,0,0,0,3.2187,3.2287,3.2289,3.232,3.2487,3.2606,3.2627,3.2666,3.2637,3.2687,3.2738,3.2737,3.2965,3.2917,3.2946,3.3007,3.3233,3.3242,3.325,3.327,3.3284,3.3295,0,0,0,0,0,0,3.2192,3.23,3.2304,3.2439,3.2513,3.2607,3.2672,3.2679,3.2762,3.2756,3.2799,3.2821,3.2941,3.2986,3.2931,3.3135,3.3096,3.311,3.3101,3.3115,3.3125,3.3112,3.2912,0,0,0,0,0,3.2209,3.2298,3.2387,3.2497,3.2535,3.2597,3.265,3.2673,3.2751,3.2782,3.2843,3.2917,3.3006,3.3063,3.3149,3.3281,3.3302,3.3337,3.3348,3.3356,3.3368,3.344,3.3457,3.328,3.328,3.328,0,0,3.2244,3.2315,3.2368,3.25,3.2561,3.2651,3.2623,3.272,3.2787,3.2797,3.2916,3.2962,3.3048,3.3176,3.3235,3.3217,3.3421,3.3366,3.3372,3.338,3.345,3.3467,3.3482,3.3286,3.3285,3.3284,0,0,3.2355,3.2418,3.2516,3.2578,3.267,3.2711,3.2734,3.2828,3.286,3.298,3.2989,3.3068,3.322,3.3281,3.3331,3.3465,3.3467,3.3491,3.3546,3.3616,3.363,3.3642,3.3689,3.3706,3.3503,3.3503,3.3503,0,3.2387,3.2525,3.2565,3.2663,3.272,3.2735,3.2834,3.2891,3.3006,3.3044,3.3023,3.3213,3.3272,3.3414,3.3446,3.3487,3.3514,3.3481,3.3625,3.3638,3.365,3.3695,3.3713,3.3505,3.3505,3.3505,3.3505,0,3.256,3.2655,3.2723,3.2836,3.2901,3.2998,3.3052,3.3112,3.3129,3.3172,3.3293,3.3364,3.3464,3.35,3.3517,3.3644,3.363,3.3616,3.3578,3.3669,3.3712,3.373,3.3509,3.3508,3.3507,3.3507,0,0,3.2679,3.2813,3.2837,3.2888,3.2991,3.3065,3.3162,3.3262,3.3312,3.3391,3.3473,3.36,3.3589,3.3646,3.367,3.3732,3.3832,3.3711,3.3714,3.3731,3.3975,3.3985,3.4004,3.3834,3.3838,3.3841,3.3968,0,3.2801,3.2977,3.3016,3.3166,3.3254,3.3269,3.3354,3.3425,3.3468,3.3547,3.3592,3.3682,3.366,3.3695,3.3757,3.3807,3.3882,3.3798,3.3909,3.3913,3.3888,3.4027,3.4038,3.4154,3.3985,3.3988,3.399,0,3.2966,3.3051,3.3211,3.3302,3.334,3.3416,3.351,3.3587,3.3667,3.3693,3.3757,3.3775,3.3875,3.3831,3.3969,3.3911,3.3959,3.399,3.3995,3.4007,3.3957,3.4042,3.4193,3.421,3.4017,3.4015,3.4013,0,3.3037,3.319,3.3306,3.3349,3.3458,3.3511,3.3559,3.3637,3.3694,3.3775,3.3812,3.3904,3.3954,3.4023,3.4064,3.4029,3.4198,3.4158,3.4222,3.4221,3.4257,3.4254,3.4417,3.4288,3.4287,3.4287,3.4287,0,3.3169,3.3266,3.3339,3.341,3.3518,3.3562,3.3667,3.3715,3.3784,3.3863,3.3881,3.3954,3.4004,3.4084,3.4116,3.4225,3.4247,3.427,3.4277,3.4268,3.4265,3.43,3.4293,3.4292,3.4291,3.429,3.4289,0,3.3265,3.3318,3.3445,3.3539,3.3565,3.3641,3.372,3.3789,3.3831,3.3931,3.3956,3.4022,3.4117,3.4165,3.4283,3.4305,3.4427,3.4429,3.44,3.4403,3.4464,3.4457,3.4655,3.4682,3.4535,3.4536,3.4537,0,3.3346,3.3421,3.3524,3.3579,3.3628,3.3717,3.3776,3.3821,3.3881,3.3978,3.4035,3.4131,3.4211,3.4361,3.4418,3.4508,3.4513,3.4576,3.4526,3.4515,3.4513,3.4508,3.4515,3.4584,3.4586,3.4587,3.4588,0,3.3483,3.3506,3.3591,3.3686,3.3756,3.3832,3.3907,3.3951,3.4007,3.4074,3.4172,3.4234,3.4355,3.445,3.4544,3.4591,3.4598,3.4603,3.4622,3.4614,3.4594,3.4605,3.4424,3.4598,3.4597,3.4596,3.4596,3.4595,3.3574,3.3642,3.3725,3.3819,3.388,3.395,3.4019,3.4071,3.4154,3.4258,3.4279,3.4382,3.446,3.4587,3.4637,3.4718,3.4704,3.4732,3.4739,3.4745,3.4748,3.4581,3.4735,3.4735,3.4735,3.4734,3.4734,0,3.3712,3.3766,3.3853,3.3958,3.4032,3.4035,3.4117,3.4178,3.427,3.4343,3.4421,3.4534,3.4626,3.469,3.4783,3.4835,3.4841,3.4858,3.4855,3.4865,3.4755,3.4729,3.4852,3.4852,3.4852,3.4852,3.4852,3.4852,3.3792,3.3907,3.3939,3.4084,3.4137,3.4241,3.4288,3.4352,3.441,3.4536,3.4613,3.4655,3.4724,3.4822,3.4906,3.4923,3.4956,3.4973,3.4989,3.4885,3.4873,3.4861,3.4837,3.498,3.498,3.5092,3.5093,3.5094]}]]